GW1230 Weather Reports


time (UTC)temp
C
wind
direction
speed
KPH
gust
KPH
rain 1hr
cm
rain 24hr
cm
rain mn
cm
humidity
%
barometer
mb
20260502170220 15 316 1.6 3.2 0.00 0.00 0.00 77 1016.9
20260502164207 15 64 3.2 4.8 0.00 0.00 0.00 79 1017.1
20260502163702 15 334 0.0 0.0 0.00 0.00 0.00 80 1017.1
20260502163159 14 25 3.2 3.2 0.00 0.00 0.00 81 1016.9
20260502162656 14 21 4.8 8.0 0.00 0.00 0.00 81 1017.1
20260502162153 14 25 4.8 4.8 0.00 0.00 0.00 82 1017.1
20260502161650 13 12 11.3 12.9 0.00 0.00 0.00 82 1016.7
20260502161147 13 2 3.2 3.2 0.00 0.00 0.00 83 1016.9
20260502160645 13 335 8.0 11.3 0.00 0.00 0.00 84 1017.0
20260502160144 13 334 1.6 1.6 0.00 0.00 0.00 85 1017.0
20260502152057 12 308 1.6 1.6 0.00 0.00 0.00 89 1016.6
20260502151554 12 343 0.0 0.0 0.00 0.00 0.00 90 1016.7
20260502151052 11 316 0.0 0.0 0.00 0.00 0.00 91 1016.8
20260502150549 11 318 0.0 0.0 0.00 0.00 0.00 92 1016.5
20260502130434 10 300 0.0 0.0 0.00 0.00 0.00 94 1016.8
20260502123416 10 313 0.0 0.0 0.00 0.00 0.00 93 1016.8
20260502122914 10 303 0.0 0.0 0.00 0.00 0.00 93 1016.7
20260502122410 10 300 0.0 0.0 0.00 0.00 0.00 93 1016.9
20260502121908 10 310 0.0 0.0 0.00 0.00 0.00 93 1016.6
20260502121405 10 296 0.0 0.0 0.00 0.00 0.00 93 1016.9
20260502120902 10 309 0.0 0.0 0.00 0.00 0.00 93 1016.8
20260502120358 10 322 0.0 0.0 0.00 0.00 0.00 93 1016.7
20260502115856 10 345 1.6 1.6 0.00 0.00 0.00 93 1016.8
20260502115353 10 333 1.6 1.6 0.00 0.00 0.00 93 1016.8
20260502114849 10 293 3.2 3.2 0.00 0.00 0.00 93 1016.9
20260502114346 10 305 1.6 1.6 0.00 0.00 0.00 92 1016.7
20260502113843 10 312 1.6 1.6 0.00 0.00 0.00 92 1017.0
20260502113341 10 305 0.0 0.0 0.00 0.00 0.00 92 1017.2
20260502112839 10 257 1.6 3.2 0.00 0.00 0.00 92 1017.2
20260502112336 10 297 3.2 3.2 0.00 0.00 0.00 92 1017.3
20260502111834 10 258 1.6 3.2 0.00 0.00 0.00 92 1017.2
20260502111331 10 244 4.8 4.8 0.00 0.00 0.00 92 1017.2
20260502110828 10 230 3.2 4.8 0.00 0.00 0.00 92 1017.4
20260502110326 10 271 1.6 3.2 0.00 0.00 0.00 92 1017.3
20260502105823 10 283 1.6 3.2 0.00 0.00 0.00 92 1017.0
20260502105320 10 288 0.0 1.6 0.00 0.00 0.00 92 1016.7
20260502104818 11 285 0.0 0.0 0.00 0.00 0.00 92 1016.6
20260502104315 11 277 0.0 1.6 0.00 0.00 0.00 92 1016.7
20260502103812 11 281 0.0 0.0 0.00 0.00 0.00 92 1016.5
20260502103309 11 283 0.0 0.0 0.00 0.00 0.00 92 1016.5
20260502102807 11 274 1.6 3.2 0.00 0.00 0.00 92 1016.5
20260502102306 11 249 3.2 3.2 0.00 0.00 0.00 91 1016.4
20260502101801 11 281 0.0 0.0 0.00 0.00 0.00 91 1016.5
20260502101259 11 290 3.2 4.8 0.00 0.00 0.00 91 1016.4
20260502100756 11 288 4.8 8.0 0.00 0.00 0.00 91 1016.4
20260502100255 11 296 1.6 1.6 0.00 0.00 0.00 90 1016.6
20260502091229 12 277 1.6 1.6 0.00 0.00 0.00 86 1016.8
20260502090727 12 279 0.0 0.0 0.00 0.00 0.00 86 1016.7
20260502090223 12 295 0.0 0.0 0.00 0.00 0.00 86 1016.8
20260502071119 14 43 3.2 4.8 0.00 0.00 0.00 70 1016.1
20260502070617 14 341 0.0 0.0 0.00 0.00 0.00 72 1016.4
20260502070115 14 333 0.0 0.0 0.00 0.00 0.00 72 1016.3
20260502065613 13 316 0.0 0.0 0.00 0.00 0.00 74 1016.1
20260502065110 14 309 0.0 0.0 0.00 0.00 0.00 74 1015.9
20260502064609 14 315 0.0 0.0 0.00 0.00 0.00 74 1016.1
20260502064105 14 303 0.0 0.0 0.00 0.00 0.00 74 1016.1
20260502063603 15 301 0.0 0.0 0.00 0.00 0.00 72 1016.2
20260502063101 15 311 0.0 0.0 0.00 0.00 0.00 68 1016.1
20260502062558 15 315 0.0 0.0 0.00 0.00 0.00 67 1016.1
20260502062055 15 337 0.0 0.0 0.00 0.00 0.00 66 1016.2
20260502061553 15 338 0.0 0.0 0.00 0.00 0.00 66 1016.1
20260502061050 15 13 4.8 4.8 0.00 0.00 0.00 66 1016.2
20260502060545 15 1 1.6 1.6 0.00 0.00 0.00 66 1016.0
20260502060042 15 29 3.2 3.2 0.00 0.00 0.00 66 1015.8
20260502055540 15 11 3.2 3.2 0.00 0.00 0.00 66 1016.2
20260502055038 15 334 1.6 1.6 0.00 0.00 0.00 66 1016.1
20260502054537 15 350 4.8 4.8 0.00 0.00 0.00 65 1015.9
20260502054033 15 5 1.6 1.6 0.00 0.00 0.00 65 1016.0
20260502053530 16 30 3.2 4.8 0.00 0.00 0.00 64 1015.8
20260502053028 16 6 3.2 3.2 0.00 0.00 0.00 64 1015.8
20260502052526 16 25 1.6 1.6 0.00 0.00 0.00 64 1015.8
20260502052024 16 21 4.8 4.8 0.00 0.00 0.00 63 1015.8
20260502051522 16 3 1.6 3.2 0.00 0.00 0.00 62 1015.7
20260502051020 16 28 0.0 1.6 0.00 0.00 0.00 62 1015.7
20260502050515 16 338 0.0 1.6 0.00 0.00 0.00 61 1015.7
20260502050013 16 6 1.6 3.2 0.00 0.00 0.00 60 1015.5
20260502045509 16 25 0.0 1.6 0.00 0.00 0.00 60 1015.6
20260502045006 16 3 0.0 1.6 0.00 0.00 0.00 60 1015.8
20260502044503 16 341 3.2 4.8 0.00 0.00 0.00 60 1015.6
20260502043959 17 339 1.6 1.6 0.00 0.00 0.00 60 1015.4
20260502043457 17 3 4.8 4.8 0.00 0.00 0.00 60 1015.5
20260502042956 17 335 3.2 3.2 0.00 0.00 0.00 59 1015.2
20260502042453 17 355 1.6 3.2 0.00 0.00 0.00 59 1015.4
20260502041951 17 359 4.8 8.0 0.00 0.00 0.00 59 1015.2
20260502041448 17 357 4.8 8.0 0.00 0.00 0.00 59 1015.1
20260502040945 17 338 8.0 9.7 0.00 0.00 0.00 60 1015.2
20260502040442 17 13 6.4 8.0 0.00 0.00 0.00 60 1015.1
20260502035938 17 20 1.6 3.2 0.00 0.00 0.00 60 1015.1
20260502035434 17 352 3.2 3.2 0.00 0.00 0.00 60 1015.0
20260502034932 17 52 3.2 3.2 0.00 0.00 0.00 60 1015.0
20260502034431 17 17 0.0 1.6 0.00 0.00 0.00 59 1015.1
20260502033929 17 12 1.6 1.6 0.00 0.00 0.00 59 1015.1
20260502033426 17 26 6.4 9.7 0.00 0.00 0.00 58 1014.8
20260502032922 17 35 4.8 8.0 0.00 0.00 0.00 57 1014.9
20260502032419 17 55 4.8 4.8 0.00 0.00 0.00 57 1014.9
20260502031916 17 5 8.0 9.7 0.00 0.00 0.00 56 1014.9
20260502031415 17 4 3.2 4.8 0.00 0.00 0.00 57 1014.8
20260502030913 17 14 3.2 4.8 0.00 0.00 0.00 56 1014.7
20260502030411 17 334 4.8 8.0 0.00 0.00 0.00 56 1014.3
20260502025908 17 6 1.6 3.2 0.00 0.00 0.00 57 1014.5
20260502025405 17 338 1.6 1.6 0.00 0.00 0.00 59 1014.6
20260502024903 17 17 3.2 3.2 0.00 0.00 0.00 60 1014.6
20260502024401 18 354 4.8 4.8 0.00 0.00 0.00 61 1014.3
20260502023858 18 9 8.0 9.7 0.00 0.00 0.00 61 1014.6
20260502023355 18 337 1.6 1.6 0.00 0.00 0.00 61 1014.4
20260502022853 18 353 4.8 8.0 0.00 0.00 0.00 61 1014.4
20260502022349 18 2 4.8 8.0 0.00 0.00 0.00 61 1014.4
20260502021846 18 29 6.4 8.0 0.00 0.00 0.00 62 1014.2
20260502021344 18 330 6.4 9.7 0.00 0.00 0.00 62 1014.2
20260502020841 18 6 11.3 17.7 0.00 0.00 0.00 61 1014.0
20260502020338 18 26 11.3 14.5 0.00 0.00 0.00 61 1014.5
20260502015835 18 7 6.4 9.7 0.00 0.00 0.00 61 1014.3
20260502015332 18 317 3.2 4.8 0.00 0.00 0.00 61 1014.3
20260502014829 18 355 4.8 8.0 0.00 0.00 0.00 60 1014.3
20260502014326 18 336 0.0 1.6 0.00 0.00 0.00 59 1014.2
20260502013822 18 325 4.8 4.8 0.00 0.00 0.00 59 1014.3
20260502013318 18 337 4.8 9.7 0.00 0.00 0.00 59 1014.4
20260502012815 19 2 4.8 4.8 0.00 0.00 0.00 58 1014.5
20260502012313 19 292 1.6 3.2 0.00 0.00 0.00 57 1014.4
20260502011810 18 301 0.0 0.0 0.00 0.00 0.00 59 1014.3
20260502011306 19 311 3.2 3.2 0.00 0.00 0.00 58 1014.5
20260502010803 18 335 3.2 4.8 0.00 0.00 0.00 58 1014.4
20260502010259 18 347 9.7 16.1 0.00 0.00 0.00 59 1014.5
20260502005756 18 313 19.3 22.5 0.00 0.00 0.00 58 1014.6
20260502005255 18 323 8.0 11.3 0.00 0.00 0.00 58 1014.3
20260502004751 18 292 9.7 12.9 0.00 0.00 0.00 59 1014.1
20260502004247 18 327 6.4 9.7 0.00 0.00 0.00 58 1014.4
20260502003745 18 334 8.0 14.5 0.00 0.00 0.00 58 1014.2
20260502003243 19 301 9.7 12.9 0.00 0.00 0.00 57 1014.4
20260502002738 19 299 8.0 12.9 0.00 0.00 0.00 55 1014.3
20260502002236 20 322 8.0 12.9 0.00 0.00 0.00 54 1014.4
20260502001732 20 10 16.1 22.5 0.00 0.00 0.00 52 1014.4
20260502001231 20 338 3.2 4.8 0.00 0.00 0.00 52 1014.4
20260502000728 20 2 9.7 14.5 0.00 0.00 0.00 52 1014.4
20260502000226 20 2 19.3 25.7 0.00 0.00 0.00 53 1014.3
20260501235721 20 264 6.4 9.7 0.00 0.00 0.00 53 1014.1
20260501235218 19 353 9.7 14.5 0.00 0.00 0.00 54 1014.2
20260501234713 19 5 11.3 20.9 0.00 0.00 0.00 53 1014.3
20260501234211 19 314 14.5 17.7 0.00 0.00 0.00 53 1014.4
20260501233709 19 342 19.3 24.1 0.00 0.00 0.00 53 1014.4
20260501233206 20 320 17.7 22.5 0.00 0.00 0.00 53 1014.4
20260501232701 19 308 19.3 29.0 0.00 0.00 0.00 54 1014.5
20260501232159 20 339 11.3 20.9 0.00 0.00 0.00 53 1014.4
20260501231657 20 356 4.8 8.0 0.00 0.00 0.00 54 1014.5
20260501231155 20 357 14.5 20.9 0.00 0.00 0.00 54 1014.5
20260501230653 20 293 11.3 20.9 0.00 0.00 0.00 55 1014.8
20260501230151 19 11 11.3 12.9 0.00 0.00 0.00 55 1014.8
20260501225648 20 42 8.0 11.3 0.00 0.00 0.00 54 1014.8
20260501225144 20 17 11.3 11.3 0.00 0.00 0.00 54 1015.0
20260501224641 19 8 4.8 11.3 0.00 0.00 0.00 56 1014.9
20260501224138 20 322 16.1 22.5 0.00 0.00 0.00 54 1014.9
20260501223635 20 341 14.5 17.7 0.00 0.00 0.00 53 1015.0
20260501223132 21 3 12.9 22.5 0.00 0.00 0.00 52 1015.0
20260501222627 20 1 4.8 12.9 0.00 0.00 0.00 55 1014.9
20260501222125 20 332 1.6 4.8 0.00 0.00 0.00 55 1015.1
20260501221621 19 327 9.7 14.5 0.00 0.00 0.00 56 1015.0
20260501221119 20 303 12.9 14.5 0.00 0.00 0.00 54 1015.4
20260501220617 20 349 8.0 12.9 0.00 0.00 0.00 55 1015.4
20260501220113 20 305 11.3 14.5 0.00 0.00 0.00 53 1015.1
20260501215610 20 13 17.7 17.7 0.00 0.00 0.00 54 1015.3
20260501215105 20 339 14.5 20.9 0.00 0.00 0.00 55 1015.3
20260501214600 19 8 14.5 24.1 0.00 0.00 0.00 56 1015.3
20260501214056 19 348 9.7 12.9 0.00 0.00 0.00 58 1015.2
20260501213553 20 337 11.3 20.9 0.00 0.00 0.00 56 1015.3
20260501213049 19 342 16.1 20.9 0.00 0.00 0.00 57 1015.3
20260501212546 20 46 11.3 16.1 0.00 0.00 0.00 55 1015.4
20260501212043 20 346 12.9 17.7 0.00 0.00 0.00 54 1015.4
20260501211539 19 353 8.0 16.1 0.00 0.00 0.00 57 1015.5
20260501211038 20 1 6.4 8.0 0.00 0.00 0.00 55 1015.4
20260501210533 20 348 8.0 12.9 0.00 0.00 0.00 55 1015.7
20260501210031 20 3 3.2 3.2 0.00 0.00 0.00 53 1015.5
20260501205527 21 241 1.6 3.2 0.00 0.00 0.00 49 1015.4
20260501205025 20 272 1.6 3.2 0.00 0.00 0.00 52 1015.4
20260501204521 21 331 4.8 9.7 0.00 0.00 0.00 51 1015.4
20260501204017 20 341 4.8 9.7 0.00 0.00 0.00 57 1015.5
20260501203514 20 318 14.5 20.9 0.00 0.00 0.00 54 1015.6
20260501203012 20 11 11.3 16.1 0.00 0.00 0.00 56 1015.5
20260501202508 19 319 8.0 9.7 0.00 0.00 0.00 56 1015.6
20260501202004 20 341 8.0 11.3 0.00 0.00 0.00 53 1015.6
20260501201502 20 344 14.5 16.1 0.00 0.00 0.00 55 1015.6
20260501200958 20 1 12.9 16.1 0.00 0.00 0.00 54 1015.5
20260501200456 19 315 8.0 11.3 0.00 0.00 0.00 56 1015.8
20260501195953 19 337 3.2 3.2 0.00 0.00 0.00 57 1015.9
20260501195450 18 331 6.4 8.0 0.00 0.00 0.00 58 1015.7
20260501194945 18 316 11.3 12.9 0.00 0.00 0.00 58 1015.9
20260501194441 18 263 6.4 9.7 0.00 0.00 0.00 61 1016.0
20260501193937 18 336 11.3 14.5 0.00 0.00 0.00 59 1015.7
20260501193435 18 322 6.4 9.7 0.00 0.00 0.00 60 1015.8
20260501192933 18 275 4.8 9.7 0.00 0.00 0.00 61 1015.8
20260501192430 18 359 3.2 4.8 0.00 0.00 0.00 62 1016.0
20260501191927 18 295 6.4 9.7 0.00 0.00 0.00 62 1015.8
20260501191424 18 301 8.0 11.3 0.00 0.00 0.00 63 1016.1
20260501190921 18 313 9.7 20.9 0.00 0.00 0.00 63 1016.1
20260501190417 18 342 4.8 9.7 0.00 0.00 0.00 63 1015.8
20260501185917 18 258 11.3 17.7 0.00 0.00 0.00 63 1015.8
20260501185414 18 296 8.0 12.9 0.00 0.00 0.00 62 1015.9
20260501184910 18 310 1.6 3.2 0.00 0.00 0.00 63 1016.1
20260501184406 18 324 8.0 9.7 0.00 0.00 0.00 63 1016.2
20260501183901 17 309 6.4 8.0 0.00 0.00 0.00 64 1016.1
20260501183359 17 311 4.8 9.7 0.00 0.00 0.00 64 1016.1
20260501182855 18 323 6.4 9.7 0.00 0.00 0.00 61 1016.3
20260501182352 17 295 8.0 11.3 0.00 0.00 0.00 63 1016.4
20260501181849 17 325 8.0 11.3 0.00 0.00 0.00 63 1016.6
20260501181346 17 330 9.7 14.5 0.00 0.00 0.00 64 1016.5
20260501180844 17 274 1.6 3.2 0.00 0.00 0.00 64 1016.6
20260501180339 17 316 8.0 9.7 0.00 0.00 0.00 63 1016.5
20260501175837 17 329 8.0 11.3 0.00 0.00 0.00 62 1016.3
20260501175333 17 314 9.7 11.3 0.00 0.00 0.00 64 1016.4
20260501174830 17 322 12.9 16.1 0.00 0.00 0.00 62 1016.6
20260501174327 17 303 8.0 12.9 0.00 0.00 0.00 62 1016.4
20260501173825 17 282 4.8 4.8 0.00 0.00 0.00 64 1016.6
20260501173323 17 348 4.8 8.0 0.00 0.00 0.00 65 1016.5